Time,TemperatureF,DewpointF,PressureIn,WindDirection,WindDirectionDegrees,WindSpeedMPH,WindSpeedGustMPH,Humidity,HourlyPrecipIn,Conditions,Clouds,dailyrainin,SoftwareType,DateUTC
2013-10-10 00:04:00,48.3,40.0,30.07,SW,224,6.0,8.0,74,0.00,,,0.00,weatherlink.com 1.10,2013-10-10 04:04:00,
2013-10-10 00:19:00,48.2,41.0,30.07,West,260,4.0,8.0,75,0.00,,,0.00,weatherlink.com 1.10,2013-10-10 04:19:00,
2013-10-10 00:34:00,48.1,40.0,30.06,SW,217,5.0,9.0,74,0.00,,,0.00,weatherlink.com 1.10,2013-10-10 04:34:00,
2013-10-10 00:49:00,47.5,40.0,30.06,SW,227,5.0,9.0,75,0.00,,,0.00,weatherlink.com 1.10,2013-10-10 04:49:00,
2013-10-10 01:04:00,46.9,39.0,30.05,SW,217,4.0,7.0,73,0.00,,,0.00,weatherlink.com 1.10,2013-10-10 05:04:00,
2013-10-10 01:19:00,46.7,38.0,30.05,SSW,213,4.0,5.0,72,0.00,,,0.00,weatherlink.com 1.10,2013-10-10 05:19:00,
2013-10-10 01:34:00,46.7,38.0,30.05,SW,225,3.0,5.0,71,0.00,,,0.00,weatherlink.com 1.10,2013-10-10 05:34:00,
2013-10-10 01:49:00,47.4,33.0,30.04,SE,140,4.0,10.0,58,0.00,,,0.00,weatherlink.com 1.10,2013-10-10 05:49:00,
2013-10-10 02:05:00,49.5,33.0,30.04,SSW,205,4.0,10.0,53,0.00,,,0.00,weatherlink.com 1.10,2013-10-10 06:05:00,
2013-10-10 02:19:00,49.6,33.0,30.04,SW,217,10.0,11.0,54,0.00,,,0.00,weatherlink.com 1.10,2013-10-10 06:19:00,
2013-10-10 02:34:00,49.5,36.0,30.04,SW,221,5.0,11.0,61,0.00,,,0.00,weatherlink.com 1.10,2013-10-10 06:34:00,
2013-10-10 02:49:00,49.1,41.0,30.04,South,180,6.0,16.0,73,0.00,,,0.00,weatherlink.com 1.10,2013-10-10 06:49:00,
2013-10-10 03:05:00,48.6,42.0,30.04,SW,215,8.0,15.0,78,0.00,,,0.00,weatherlink.com 1.10,2013-10-10 07:05:00,
2013-10-10 03:20:00,48.3,42.0,30.03,South,189,5.0,12.0,78,0.00,,,0.00,weatherlink.com 1.10,2013-10-10 07:20:00,
2013-10-10 03:35:00,48.1,42.0,30.03,SSW,207,3.0,15.0,78,0.00,,,0.00,weatherlink.com 1.10,2013-10-10 07:35:00,
2013-10-10 03:50:00,47.9,41.0,30.02,SW,216,6.0,14.0,78,0.00,,,0.00,weatherlink.com 1.10,2013-10-10 07:50:00,
2013-10-10 04:05:00,47.7,41.0,30.02,West,259,4.0,14.0,78,0.00,,,0.00,weatherlink.com 1.10,2013-10-10 08:05:00,
2013-10-10 04:20:00,47.5,42.0,30.02,SSW,212,8.0,12.0,80,0.00,,,0.00,weatherlink.com 1.10,2013-10-10 08:20:00,
2013-10-10 04:35:00,47.2,42.0,30.02,SW,217,5.0,13.0,81,0.00,,,0.00,weatherlink.com 1.10,2013-10-10 08:35:00,
2013-10-10 04:50:00,46.9,42.0,30.02,SW,221,6.0,13.0,82,0.00,,,0.00,weatherlink.com 1.10,2013-10-10 08:50:00,
2013-10-10 05:05:00,46.9,42.0,30.02,WSW,245,5.0,17.0,82,0.00,,,0.00,weatherlink.com 1.10,2013-10-10 09:05:00,
2013-10-10 05:20:00,46.8,42.0,30.02,WSW,245,5.0,17.0,83,0.00,,,0.00,weatherlink.com 1.10,2013-10-10 09:20:00,
2013-10-10 05:35:00,46.8,42.0,30.03,SSW,197,9.0,16.0,83,0.00,,,0.00,weatherlink.com 1.10,2013-10-10 09:35:00,
2013-10-10 05:50:00,46.8,42.0,30.03,SW,232,6.0,14.0,82,0.00,,,0.00,weatherlink.com 1.10,2013-10-10 09:50:00,
2013-10-10 06:05:00,46.7,41.0,30.03,WSW,258,8.0,11.0,81,0.00,,,0.00,weatherlink.com 1.10,2013-10-10 10:05:00,
2013-10-10 06:20:00,46.2,41.0,30.03,SW,231,3.0,11.0,82,0.00,,,0.00,weatherlink.com 1.10,2013-10-10 10:20:00,
2013-10-10 06:35:00,45.9,41.0,30.02,SSW,208,7.0,14.0,83,0.00,,,0.00,weatherlink.com 1.10,2013-10-10 10:35:00,
2013-10-10 06:50:00,45.7,41.0,30.03,WNW,303,3.0,11.0,83,0.00,,,0.00,weatherlink.com 1.10,2013-10-10 10:50:00,
2013-10-10 07:05:00,45.4,41.0,30.03,West,263,7.0,12.0,84,0.00,,,0.00,weatherlink.com 1.10,2013-10-10 11:05:00,
2013-10-10 07:20:00,45.7,41.0,30.02,WSW,255,9.0,15.0,82,0.00,,,0.00,weatherlink.com 1.10,2013-10-10 11:20:00,
2013-10-10 07:35:00,45.9,41.0,30.02,WSW,248,8.0,17.0,82,0.00,,,0.00,weatherlink.com 1.10,2013-10-10 11:35:00,
2013-10-10 07:50:00,45.7,40.0,30.03,WSW,246,11.0,13.0,81,0.00,,,0.00,weatherlink.com 1.10,2013-10-10 11:50:00,
2013-10-10 08:20:00,46.2,40.0,30.03,SW,217,3.0,16.0,80,0.00,,,0.00,weatherlink.com 1.10,2013-10-10 12:20:00,
2013-10-10 08:35:00,46.5,41.0,30.03,WNW,291,5.0,16.0,80,0.00,,,0.00,weatherlink.com 1.10,2013-10-10 12:35:00,
2013-10-10 08:50:00,47.4,41.0,30.03,SSW,197,6.0,17.0,79,0.00,,,0.00,weatherlink.com 1.10,2013-10-10 12:50:00,
2013-10-10 09:05:00,47.8,41.0,30.03,NW,317,6.0,16.0,78,0.00,,,0.00,weatherlink.com 1.10,2013-10-10 13:05:00,
2013-10-10 09:20:00,48.1,41.0,30.04,WNW,300,6.0,13.0,76,0.00,,,0.00,weatherlink.com 1.10,2013-10-10 13:20:00,
2013-10-10 09:35:00,48.6,41.0,30.04,WSW,242,7.0,15.0,74,0.00,,,0.00,weatherlink.com 1.10,2013-10-10 13:35:00,
2013-10-10 09:50:00,49.2,41.0,30.05,West,273,2.0,12.0,73,0.00,,,0.00,weatherlink.com 1.10,2013-10-10 13:50:00,
2013-10-10 10:05:00,49.7,41.0,30.05,SW,214,2.0,12.0,72,0.00,,,0.00,weatherlink.com 1.10,2013-10-10 14:05:00,
2013-10-10 10:20:00,50.4,40.0,30.05,West,264,9.0,14.0,67,0.00,,,0.00,weatherlink.com 1.10,2013-10-10 14:20:00,
2013-10-10 10:35:00,51.0,40.0,30.05,SSW,198,12.0,15.0,66,0.00,,,0.00,weatherlink.com 1.10,2013-10-10 14:35:00,
2013-10-10 10:50:00,51.5,40.0,30.05,SW,227,7.0,14.0,65,0.00,,,0.00,weatherlink.com 1.10,2013-10-10 14:50:00,
2013-10-10 11:06:00,51.7,41.0,30.05,WSW,244,3.0,16.0,66,0.00,,,0.00,weatherlink.com 1.10,2013-10-10 15:06:00,
2013-10-10 11:21:00,51.9,40.0,30.05,WSW,244,3.0,11.0,65,0.00,,,0.00,weatherlink.com 1.10,2013-10-10 15:21:00,
2013-10-10 11:36:00,51.9,41.0,30.05,SW,214,9.0,14.0,66,0.00,,,0.00,weatherlink.com 1.10,2013-10-10 15:36:00,
2013-10-10 11:51:00,52.7,42.0,30.05,SSW,208,9.0,15.0,68,0.00,,,0.00,weatherlink.com 1.10,2013-10-10 15:51:00,
2013-10-10 12:06:00,53.3,43.0,30.05,SW,223,11.0,12.0,68,0.00,,,0.00,weatherlink.com 1.10,2013-10-10 16:06:00,
2013-10-10 12:21:00,52.5,42.0,30.05,WNW,283,9.0,13.0,68,0.00,,,0.00,weatherlink.com 1.10,2013-10-10 16:21:00,
2013-10-10 12:36:00,52.6,44.0,30.04,SSW,200,4.0,14.0,72,0.00,,,0.00,weatherlink.com 1.10,2013-10-10 16:36:00,
2013-10-10 12:51:00,53.4,43.0,30.04,SW,225,8.0,12.0,69,0.00,,,0.00,weatherlink.com 1.10,2013-10-10 16:51:00,
2013-10-10 13:06:00,53.2,44.0,30.04,SW,231,5.0,13.0,72,0.00,,,0.00,weatherlink.com 1.10,2013-10-10 17:06:00,
2013-10-10 13:21:00,53.2,45.0,30.03,SW,234,6.0,12.0,73,0.00,,,0.00,weatherlink.com 1.10,2013-10-10 17:21:00,
2013-10-10 13:36:00,53.3,45.0,30.03,SSW,213,6.0,10.0,73,0.00,,,0.00,weatherlink.com 1.10,2013-10-10 17:36:00,
2013-10-10 13:51:00,53.2,45.0,30.03,SW,229,3.0,12.0,75,0.00,,,0.00,weatherlink.com 1.10,2013-10-10 17:51:00,
2013-10-10 14:06:00,53.0,46.0,30.02,South,176,8.0,13.0,76,0.00,,,0.00,weatherlink.com 1.10,2013-10-10 18:06:00,
2013-10-10 14:21:00,52.8,46.0,30.02,SSW,202,7.0,14.0,77,0.00,,,0.00,weatherlink.com 1.10,2013-10-10 18:21:00,
2013-10-10 14:36:00,52.3,46.0,30.02,South,186,6.0,10.0,80,0.00,,,0.00,weatherlink.com 1.10,2013-10-10 18:36:00,
2013-10-10 14:51:00,52.5,47.0,30.02,SW,234,8.0,9.0,81,0.00,,,0.00,weatherlink.com 1.10,2013-10-10 18:51:00,
2013-10-10 15:06:00,51.9,47.0,30.01,SW,236,5.0,11.0,82,0.00,,,0.00,weatherlink.com 1.10,2013-10-10 19:06:00,
2013-10-10 15:21:00,52.5,47.0,30.01,WSW,257,4.0,9.0,81,0.00,,,0.00,weatherlink.com 1.10,2013-10-10 19:21:00,
2013-10-10 15:36:00,52.2,47.0,30.01,WSW,243,7.0,11.0,82,0.00,,,0.00,weatherlink.com 1.10,2013-10-10 19:36:00,
2013-10-10 15:51:00,52.4,47.0,30.01,SW,232,4.0,14.0,81,0.00,,,0.00,weatherlink.com 1.10,2013-10-10 19:51:00,
2013-10-10 16:06:00,52.4,47.0,30.01,WNW,301,9.0,12.0,81,0.00,,,0.00,weatherlink.com 1.10,2013-10-10 20:06:00,
2013-10-10 16:21:00,51.9,46.0,30.01,SSW,197,5.0,14.0,81,0.00,,,0.00,weatherlink.com 1.10,2013-10-10 20:21:00,
2013-10-10 16:36:00,51.5,46.0,30.01,SW,218,2.0,13.0,82,0.00,,,0.00,weatherlink.com 1.10,2013-10-10 20:36:00,
2013-10-10 16:51:00,51.2,46.0,30.01,WNW,283,7.0,11.0,82,0.00,,,0.00,weatherlink.com 1.10,2013-10-10 20:51:00,
2013-10-10 17:06:00,51.2,46.0,30.01,SW,221,3.0,10.0,82,0.00,,,0.00,weatherlink.com 1.10,2013-10-10 21:06:00,
2013-10-10 17:21:00,51.2,46.0,30.01,North,360,1.0,14.0,83,0.00,,,0.00,weatherlink.com 1.10,2013-10-10 21:21:00,
2013-10-10 17:36:00,50.8,47.0,30.01,WSW,251,3.0,12.0,85,0.00,,,0.00,weatherlink.com 1.10,2013-10-10 21:36:00,
2013-10-10 17:51:00,50.3,47.0,30.00,SSW,198,5.0,13.0,87,0.00,,,0.00,weatherlink.com 1.10,2013-10-10 21:51:00,
2013-10-10 18:06:00,50.1,47.0,30.00,South,188,6.0,12.0,88,0.00,,,0.00,weatherlink.com 1.10,2013-10-10 22:06:00,
2013-10-10 18:21:00,49.7,47.0,30.00,WSW,254,7.0,14.0,89,0.00,,,0.00,weatherlink.com 1.10,2013-10-10 22:21:00,
2013-10-10 18:36:00,49.6,46.0,30.00,ESE,123,4.0,16.0,88,0.00,,,0.00,weatherlink.com 1.10,2013-10-10 22:36:00,
2013-10-10 18:51:00,49.5,46.0,30.00,WSW,250,8.0,13.0,89,0.00,,,0.00,weatherlink.com 1.10,2013-10-10 22:51:00,
2013-10-10 19:06:00,49.3,47.0,30.01,SSW,201,8.0,14.0,90,0.00,,,0.00,weatherlink.com 1.10,2013-10-10 23:06:00,
2013-10-10 19:21:00,49.1,47.0,30.01,SW,232,9.0,12.0,91,0.00,,,0.00,weatherlink.com 1.10,2013-10-10 23:21:00,
2013-10-10 19:36:00,48.8,47.0,30.02,SW,216,6.0,9.0,92,0.00,,,0.00,weatherlink.com 1.10,2013-10-10 23:36:00,
2013-10-10 19:51:00,48.7,47.0,30.01,SSW,203,6.0,9.0,92,0.00,,,0.00,weatherlink.com 1.10,2013-10-10 23:51:00,
2013-10-10 20:06:00,48.5,46.0,30.01,SW,229,6.0,9.0,92,0.00,,,0.00,weatherlink.com 1.10,2013-10-11 00:06:00,
2013-10-10 20:21:00,48.7,47.0,30.01,WNW,298,5.0,8.0,92,0.00,,,0.00,weatherlink.com 1.10,2013-10-11 00:21:00,
2013-10-10 20:36:00,48.6,46.0,30.01,WNW,300,0.0,8.0,92,0.00,,,0.00,weatherlink.com 1.10,2013-10-11 00:36:00,
2013-10-10 20:51:00,48.6,46.0,30.01,SW,223,7.0,12.0,90,0.00,,,0.00,weatherlink.com 1.10,2013-10-11 00:51:00,
2013-10-10 21:06:00,48.8,45.0,30.00,WSW,243,2.0,12.0,88,0.00,,,0.00,weatherlink.com 1.10,2013-10-11 01:06:00,
2013-10-10 21:21:00,48.7,45.0,30.01,WNW,302,8.0,11.0,88,0.00,,,0.00,weatherlink.com 1.10,2013-10-11 01:21:00,
2013-10-10 21:36:00,48.6,45.0,30.00,NW,312,5.0,13.0,88,0.00,,,0.00,weatherlink.com 1.10,2013-10-11 01:36:00,
2013-10-10 21:51:00,48.4,45.0,30.01,NW,308,1.0,14.0,89,0.00,,,0.00,weatherlink.com 1.10,2013-10-11 01:51:00,
2013-10-10 22:06:00,48.7,46.0,30.01,SW,229,3.0,12.0,90,0.00,,,0.00,weatherlink.com 1.10,2013-10-11 02:06:00,
2013-10-10 22:21:00,49.1,47.0,30.01,WSW,250,7.0,11.0,91,0.00,,,0.00,weatherlink.com 1.10,2013-10-11 02:21:00,
2013-10-10 22:36:00,49.4,47.0,30.00,WSW,243,2.0,11.0,91,0.00,,,0.00,weatherlink.com 1.10,2013-10-11 02:36:00,
2013-10-10 22:51:00,49.6,47.0,30.01,West,262,4.0,10.0,92,0.00,,,0.00,weatherlink.com 1.10,2013-10-11 02:51:00,
2013-10-10 23:06:00,49.5,47.0,30.00,SSW,205,6.0,11.0,92,0.00,,,0.00,weatherlink.com 1.10,2013-10-11 03:06:00,
2013-10-10 23:21:00,49.3,47.0,30.00,SW,226,5.0,10.0,93,0.00,,,0.00,weatherlink.com 1.10,2013-10-11 03:21:00,
2013-10-10 23:36:00,49.2,47.0,30.00,West,262,2.0,12.0,93,0.00,,,0.00,weatherlink.com 1.10,2013-10-11 03:36:00,
2013-10-10 23:51:00,49.1,48.0,30.00,West,265,3.0,10.0,94,0.00,,,0.00,weatherlink.com 1.10,2013-10-11 03:51:00,